Location: B?dimalle
(17.1788°N, 80.5377°E)
Time: 12:34:44
(UTC+00:00)

Courier 1B Rocket - Pass Details

Date: 18 December 2025
Orbit: 920 x 1201 km, 28.2° (Epoch: 25 January)

Event Time Altitude Azimuth Distance (km) Brightness Sun altitude
Rises 14:58:56 0° 270° (W) 4,057 9.1 -39.3°
Reaches altitude 10° 15:01:55 10° 276° (W) 3,112 8.2 -40.0°
Enters shadow 15:06:33 34° 302° (WNW) 1,873 6.6 -41.1°
